STARLINK-37037, 68084

Orbit data source: Space-Track

STARLINK-37037, 68084 is a payload satellite owned by SpaceX/Seattle (US) in LEO that was launched on Wed, 04 Mar 2026 UTC via an FALCON 9 launch vehicle from the Air Force Eastern Test Range (AFETR). Payload-class satellites include a variety of spacecraft equipped with specific instruments for various scientific and technological missions. These include communications satellites like Starlink; space stations such as the ISS; scientific satellites like the Hubble; Earth observation satellites from companies like Planet Labs, Umbra, and HawkEye 360; GPS; miniature CubeSats for education and research; and military/defense satellites.

Loading next visibility...
Identifier
68084, 2026-042R
Orbit
LEO
Country
Flag of USUS
Related business
Manufacturer
SpaceX/Seattle
Mission
Operational spacecraft
Bus & Motor
STARLINK V2MO, Unknown motor
Mass
575 kg wet, ~530 kg dry
Launch date (UTC)
2026-03-04 (1 month ago)
Launch vehicle
FALCON 9
Launch site
Air Force Eastern Test Range (AFETR)
Object type
Payload
Rocket body
Debris
Shape & HBR
Unknown shape, 17.7 m
Radar Cross Section
RCS unknown

Expand to show TLE details & history
Last TLE update: 12 hours ago

TLE from 12 hours ago
0 STARLINK-37037
1 68084U 26042R   26102.06973973  .00165209  00000-0  10593-2 0  9998
2 68084  53.1579  28.1471 0001055 123.6076 236.5045 15.75274531  7357
Epoch: 2026-04-12T01:40Z
TLE epoch observation values (Epoch: 2026-04-12T01:40:25.512Z)
Latitude
-0.00004°
Longitude
162.76079°
Altitude
345.158 km
Speed
7.703 km/s
True Right ascension
01h 52m 35s
True Declination
0° 00' 00"
Sunlit
Object was in daylight at epoch
Visualization orbit readout
Latitude
Unknown
Longitude
Unknown
Altitude
Unknown
Speed
Unknown
Apparent Right ascension
Unknown
Apparent Declination
Unknown
Sunlit
N/A
Visualization observer readout
Local Sidereal Time
19:48:59
Azimuth
Unknown
Elevation
Unknown
Doppler factor
Unknown
Orbital elements
Apogee altitude
344.821 km
Perigee altitude
343.403 km
Semi-major axis
6,722.249 km
Eccentricity
0.00011
Inclination
53.1579°
RAAN
28.1471°
Arg. of periapsis
123.6076°
True anomaly
236.49442°
Mean anomaly
236.5045°
Eccentric anomaly
236.49946°
Mean motion
3.93796 °/min
Orbital period
91.42 mins
BSTAR
0.0010593
Loading maneuver chart data...
Computing Atmospheric mass density...
Loading historical data...
Loading historical data...
Loading historical data...
Loading historical data...
Loading historical data...
Loading historical data...
Loading historical data...

Documentation

Showing up to 5 results
|